Flag for Montenegro Weather past 2 weeks in Nikšić, Montenegro

Now
54 °F

Light rain. Overcast.


Feels Like: 53 °F
Forecast: 33 / 43 °F
Wind: 5 mph from South

Location: Niksic

Current Time: Oct 22, 2014 at 8:29:56 AM

Latest Report: Oct 22, 2014 at 7:00 AM


Visibility: 6 mi

Pressure: 29.69 "Hg

Humidity: 99%

Dew point: 54 °F

Location of NikšićLocation

Historic Weather in Nikšić — Graph

°F

Nikšić temperature yesterday

Maximum temperature yesterday: 65 °F (at 4:00 PM)
Minimum temperature yesterday: 42 °F (at 7:00 AM)
Average temperature yesterday: 55 °F

Past Weeks' High & Low Weather Summary

 TemperatureHumidityPressure
High77 °F (Oct 10, 2:00 PM)100% (Oct 7, 7:00 AM)30.37 "Hg (Oct 7, 7:00 AM)
Low42 °F (Oct 21, 7:00 AM)32% (Oct 19, 1:00 PM)29.69 "Hg (Oct 22, 7:00 AM)
Average60 °F89%30.09 "Hg
* Reported Oct 7 7:00 AM — Oct 22 7:00 AM, Nikšić, Weather by CustomWeather, © 2014

Note: Actual official high and low records may vary slightly from our data, if they occured in-between our weather recording intervals... More about our weather records

Advertising

Nikšić weather history for previous 24 hours

 ConditionsComfort  
Time TempWeatherWind HumidityBarometerVisibility
7:00 AM
Oct 22
54 °FLight rain. Overcast.5 mph99%29.69 "Hg6 mi
6:00 AM54 °FOvercast.3 mph99%29.72 "Hg9 mi
5:00 AM53 °FLight rain. Overcast.6 mph99%29.75 "Hg9 mi
2:00 AM54 °FOvercast.5 mph100%29.84 "Hg12 mi
11:00 PM
Oct 21
55 °FPassing clouds.2 mph100%29.91 "Hg12 mi
10:00 PM55 °FPassing clouds.2 mph100%29.91 "Hg12 mi
9:00 PM55 °FPassing clouds.5 mph100%29.92 "Hg12 mi
8:00 PM57 °FPassing clouds.5 mph100%29.92 "Hg12 mi
7:00 PM57 °FPassing clouds.5 mph99%29.93 "Hg12 mi
6:00 PM58 °FOvercast.5 mph99%29.92 "Hg12 mi
5:00 PM62 °FPartly sunny.5 mph96%29.90 "Hg12 mi
4:00 PM65 °FPartly sunny.3 mph91%29.89 "Hg12 mi
3:00 PM65 °FOvercast.2 mph89%29.90 "Hg12 mi
2:00 PM63 °FOvercast.2 mph94%29.94 "Hg12 mi
1:00 PM63 °FOvercast.2 mph92%29.96 "Hg12 mi
12:00 PM60 °FOvercast.2 mph92%29.99 "Hg12 mi
11:00 AM61 °FPartly sunny.2 mph80%30.00 "Hg12 mi
10:00 AM55 °FScattered clouds.2 mph90%30.03 "Hg12 mi
9:00 AM50 °FPassing clouds.2 mph99%30.06 "Hg12 mi
Weather by CustomWeather, © 2014

See weather overviewHow to use our weather pages